Change the Weather History Date:

Friday, January 20, 2012

  Actual Average (KLWV) Record (KLWV)
Temperature  
Mean Temperature 26 °F 31 °F  
Max Temperature 33 °F 39 °F 63 °F (2006)
Min Temperature 19 °F 23 °F 3 °F (2008)
Degree Days  
Heating Degree Days 39 34  
Month to date heating degree days 680  
Since 1 July heating degree days 2479  
Cooling Degree Days 0 0  
Month to date cooling degree days 0  
Year to date cooling degree days 0  
Moisture  
Dew Point 22 °F    
Average Humidity 80    
Maximum Humidity 100    
Minimum Humidity 69    
Precipitation  
Precipitation 0.06 in 0.05 in 1.25 in (1990)
Month to date precipitation 1.74  
Year to date precipitation 1.74  
Sea Level Pressure  
Sea Level Pressure 30.03 in    
Wind  
Wind Speed 11 mph (ENE)    
Max Wind Speed 15 mph    
Max Gust Speed 18 mph    
Visibility 9 miles    
Events Snow    
T = Trace of Precipitation, MM = Missing Value Source: NWS Daily Summary

Daily Weather History Graph

Daily Weather History Graph

Search for Another Location

Airport or City:

Trip Planner

Search our weather history database for the weather conditions in past years. The results will help you decide how hot, cold, wet, or windy it might be!

Date:

Astronomy

Jan. 20, 2012 Rise Set
Actual Time 7:05 AM CST 4:58 PM CST
Civil Twilight 6:36 AM CST 5:27 PM CST
Nautical Twilight 6:04 AM CST 5:59 PM CST
Astronomical Twilight 5:32 AM CST 6:31 PM CST
Moon 4:41 AM CST (1/20) 2:30 PM CST (1/20)
Length of Visible Light 10h 51m
Length of Day
9h 53m
Waning Crescent, 8% of the Moon is Illuminated
Jan 20
Waning Crescent
Jan 23
New
Jan 30
First Quarter
Feb 7
Full
Feb 14
Last Quarter

Hourly Weather History & Observations

Time (CST) Temp. Windchill Dew Point Humidity Pressure Visibility Wind Dir Wind Speed Gust Speed Precip Events Conditions
12:15 AM 21.2 °F 11.7 °F 14.0 °F 74% 30.14 in 10.0 mi NNE 8.1 mph - N/A   Clear
12:35 AM 19.4 °F 5.5 °F 14.0 °F 80% 30.13 in 10.0 mi NE 15.0 mph - N/A   Clear
12:55 AM 19.4 °F 7.9 °F 14.0 °F 80% 30.14 in 10.0 mi NE 10.4 mph 18.4 mph N/A   Clear
1:15 AM 19.4 °F 6.0 °F 14.0 °F 80% 30.15 in 10.0 mi NE 13.8 mph - N/A   Clear
1:35 AM 19.4 °F 7.9 °F 14.0 °F 80% 30.17 in 10.0 mi NE 10.4 mph - N/A   Clear
1:55 AM 19.4 °F 9.5 °F 14.0 °F 80% 30.17 in 10.0 mi ENE 8.1 mph - N/A   Clear
2:15 AM 19.4 °F 7.9 °F 14.0 °F 80% 30.17 in 10.0 mi NE 10.4 mph - N/A   Clear
2:55 AM 19.4 °F 7.9 °F 14.0 °F 80% 30.16 in 10.0 mi NNE 10.4 mph - N/A   Clear
3:15 AM 19.4 °F 8.6 °F 14.0 °F 80% 30.16 in 10.0 mi NE 9.2 mph - N/A   Clear
3:35 AM 19.4 °F 8.6 °F 14.0 °F 80% 30.14 in 10.0 mi NE 9.2 mph - N/A   Clear
3:55 AM 19.4 °F 6.6 °F 14.0 °F 80% 30.13 in 10.0 mi ENE 12.7 mph - N/A   Clear
4:15 AM 21.2 °F 8.9 °F 14.0 °F 74% 30.13 in 10.0 mi NE 12.7 mph - N/A   Clear
4:35 AM 19.4 °F 8.6 °F 14.0 °F 80% 30.14 in 10.0 mi ENE 9.2 mph - N/A   Scattered Clouds
4:55 AM 21.2 °F 10.9 °F 14.0 °F 74% 30.16 in 10.0 mi NNE 9.2 mph - N/A   Scattered Clouds
5:15 AM 21.2 °F 9.5 °F 14.0 °F 74% 30.15 in 10.0 mi NE 11.5 mph - N/A   Mostly Cloudy
5:35 AM 21.2 °F 10.9 °F 15.8 °F 80% 30.15 in 10.0 mi ENE 9.2 mph - N/A   Mostly Cloudy
5:55 AM 21.2 °F 9.5 °F 15.8 °F 80% 30.14 in 10.0 mi ENE 11.5 mph - N/A   Scattered Clouds
6:15 AM 21.2 °F 9.5 °F 15.8 °F 80% 30.16 in 10.0 mi ENE 11.5 mph - N/A   Clear
6:35 AM 21.2 °F 10.1 °F 15.8 °F 80% 30.15 in 10.0 mi ENE 10.4 mph - N/A   Scattered Clouds
6:55 AM 23.0 °F 12.4 °F 17.6 °F 80% 30.14 in 10.0 mi East 10.4 mph - N/A   Overcast
7:15 AM 23.0 °F 11.7 °F 17.6 °F 80% 30.14 in 10.0 mi ENE 11.5 mph - N/A   Overcast
7:35 AM 23.0 °F 11.7 °F 17.6 °F 80% 30.12 in 10.0 mi ENE 11.5 mph - N/A   Overcast
7:55 AM 23.0 °F 12.4 °F 17.6 °F 80% 30.13 in 10.0 mi East 10.4 mph - N/A   Overcast
8:15 AM 24.8 °F 13.4 °F 17.6 °F 74% 30.11 in 10.0 mi East 12.7 mph - N/A   Mostly Cloudy
8:35 AM 24.8 °F 12.9 °F 17.6 °F 74% 30.10 in 10.0 mi East 13.8 mph - N/A   Scattered Clouds
8:55 AM 26.6 °F 16.2 °F 19.4 °F 74% 30.09 in 10.0 mi East 11.5 mph - N/A   Scattered Clouds
9:15 AM 26.6 °F 15.2 °F 19.4 °F 74% 30.09 in 10.0 mi East 13.8 mph - N/A   Overcast
9:35 AM 28.4 °F 18.5 °F 21.2 °F 74% 30.08 in 10.0 mi East 11.5 mph - N/A   Mostly Cloudy
9:55 AM 28.4 °F 19.1 °F 21.2 °F 74% 30.09 in 10.0 mi East 10.4 mph - N/A   Clear
10:15 AM 30.2 °F 21.9 °F 21.2 °F 69% 30.08 in 10.0 mi East 9.2 mph - N/A   Scattered Clouds
10:35 AM 30.2 °F 21.3 °F 23.0 °F 75% 30.08 in 10.0 mi East 10.4 mph - N/A   Mostly Cloudy
10:55 AM 30.2 °F 20.8 °F 23.0 °F 75% 30.07 in 10.0 mi East 11.5 mph - N/A   Mostly Cloudy
11:15 AM 32.0 °F 23.6 °F 23.0 °F 69% 30.06 in 10.0 mi East 10.4 mph - N/A   Mostly Cloudy
11:35 AM 32.0 °F 22.5 °F 23.0 °F 69% 30.04 in 10.0 mi East 12.7 mph - N/A   Overcast
11:55 AM 32.0 °F 23.6 °F 24.8 °F 75% 30.02 in 10.0 mi East 10.4 mph - N/A   Overcast
12:35 PM 32.0 °F 23.0 °F 24.8 °F 75% 29.97 in 10.0 mi ENE 11.5 mph - N/A   Overcast
12:55 PM 32.0 °F 22.1 °F 26.6 °F 80% 29.95 in 10.0 mi ENE 13.8 mph - N/A   Overcast
1:15 PM 32.0 °F 22.1 °F 26.6 °F 80% 29.95 in 10.0 mi East 13.8 mph - N/A   Overcast
1:35 PM 32.0 °F 23.6 °F 26.6 °F 80% 29.94 in 10.0 mi ENE 10.4 mph - N/A   Overcast
1:55 PM 32.0 °F 24.2 °F 26.6 °F 80% 29.94 in 10.0 mi East 9.2 mph - N/A   Overcast
2:15 PM 32.0 °F 23.0 °F 26.6 °F 80% 29.92 in 10.0 mi ENE 11.5 mph - N/A   Overcast
2:35 PM 32.0 °F 23.6 °F 26.6 °F 80% 29.91 in 10.0 mi East 10.4 mph - N/A   Overcast
2:55 PM 33.8 °F 25.8 °F 26.6 °F 75% 29.91 in 10.0 mi ENE 10.4 mph - N/A   Overcast
3:15 PM 33.8 °F 25.8 °F 26.6 °F 75% 29.91 in 10.0 mi ENE 10.4 mph - N/A   Overcast
3:55 PM 33.8 °F 26.4 °F 26.6 °F 75% 29.89 in 10.0 mi ENE 9.2 mph - N/A   Overcast
4:15 PM 33.8 °F 26.4 °F 26.6 °F 75% 29.89 in 10.0 mi ENE 9.2 mph - N/A   Overcast
4:35 PM 33.8 °F 25.8 °F 26.6 °F 75% 29.89 in 10.0 mi East 10.4 mph - N/A   Overcast
4:55 PM 33.8 °F 26.4 °F 26.6 °F 75% 29.90 in 10.0 mi East 9.2 mph - N/A   Overcast
5:15 PM 33.8 °F 26.4 °F 26.6 °F 75% 29.89 in 10.0 mi East 9.2 mph - N/A   Overcast
5:35 PM 33.8 °F 25.3 °F 26.6 °F 75% 29.88 in 10.0 mi East 11.5 mph - N/A   Overcast
5:55 PM 32.0 °F 22.5 °F 28.4 °F 87% 29.88 in 5.0 mi East 12.7 mph - N/A   Drizzle
6:15 PM 32.0 °F 23.6 °F 30.2 °F 93% 29.87 in 5.0 mi ENE 10.4 mph - N/A   Drizzle
6:35 PM 32.0 °F 24.2 °F 30.2 °F 93% 29.87 in 3.0 mi ENE 9.2 mph - N/A Snow Light Snow
6:55 PM 32.0 °F 24.8 °F 30.2 °F 93% 29.87 in 7.0 mi ENE 8.1 mph - N/A   Drizzle
7:15 PM 32.0 °F 24.2 °F 30.2 °F 93% 29.87 in 5.0 mi NE 9.2 mph - N/A   Overcast
7:35 PM 32.0 °F 23.6 °F 30.2 °F 93% 29.86 in 5.0 mi NE 10.4 mph - 0.04 in   Overcast
7:55 PM 32.0 °F 24.2 °F 32.0 °F 100% 29.85 in 5.0 mi NE 9.2 mph - 0.04 in   Overcast
8:15 PM 32.0 °F 26.4 °F 32.0 °F 100% 29.88 in 4.0 mi North 5.8 mph - N/A   Overcast
8:35 PM 32.0 °F 24.8 °F 32.0 °F 100% 29.88 in 3.0 mi North 8.1 mph - 0.01 in   Overcast
8:55 PM 32.0 °F 24.2 °F 32.0 °F 100% 29.89 in 4.0 mi North 9.2 mph - 0.02 in   Light Drizzle
9:15 PM 32.0 °F 25.6 °F 32.0 °F 100% 29.90 in 5.0 mi North 6.9 mph - N/A   Overcast
9:35 PM 32.0 °F 24.8 °F 32.0 °F 100% 29.89 in 4.0 mi North 8.1 mph - 0.01 in   Overcast
9:55 PM 32.0 °F 27.5 °F 32.0 °F 100% 29.90 in 5.0 mi North 4.6 mph - 0.01 in   Overcast
10:15 PM 32.0 °F 26.4 °F 32.0 °F 100% 29.91 in 4.0 mi North 5.8 mph - N/A   Overcast
10:35 PM 32.0 °F 26.4 °F 32.0 °F 100% 29.91 in 3.0 mi North 5.8 mph - N/A   Overcast
10:55 PM 32.0 °F 24.8 °F 32.0 °F 100% 29.90 in 3.0 mi North 8.1 mph - N/A   Overcast
11:15 PM 32.0 °F 25.6 °F 32.0 °F 100% 29.91 in 7.0 mi North 6.9 mph - N/A   Overcast
11:35 PM 32.0 °F 24.8 °F 32.0 °F 100% 29.91 in 7.0 mi North 8.1 mph - N/A   Overcast
11:55 PM 32.0 °F 24.2 °F 30.2 °F 93% 29.92 in 10.0 mi North 9.2 mph - N/A   Overcast